Weather History for Ann Arbor, MI

Change the Weather History Date:

Tuesday, May 14, 2013

  Actual Average Record
Temperature  
Mean Temperature 60 °F -  
Max Temperature 79 °F 66 °F 79 °F (2013)
Min Temperature 41 °F 44 °F 33 °F (2001)
Degree Days  
Heating Degree Days 6    
Growing Degree Days 10 (Base 50)    
Moisture  
Dew Point 40 °F    
Average Humidity 50    
Maximum Humidity 69    
Minimum Humidity 35    
Precipitation  
Precipitation 0.00 in - - ()
Sea Level Pressure  
Sea Level Pressure 29.90 in    
Wind  
Wind Speed 7 mph (South)    
Max Wind Speed 18 mph    
Max Gust Speed 25 mph    
Visibility 10 miles    
Events      
Averages and records for this station are not official NWS values.
T = Trace of Precipitation, MM = Missing Value Source: NWS Daily Summary

Daily Weather History Graph

Daily Weather History Graph

Search for Another Location

Airport:

Trip Planner

Search our weather history database for the weather conditions in past years. The results will help you decide how hot, cold, wet, or windy it might be!

Date:

Astronomy

May. 14, 2013 Rise Set
Actual Time 6:14 AM EDT 8:48 PM EDT
Civil Twilight 5:42 AM EDT 9:20 PM EDT
Nautical Twilight 5:02 AM EDT 10:00 PM EDT
Astronomical Twilight 4:17 AM EDT 10:46 PM EDT
Moon 9:53 AM EDT (5/14) No Moon Set
Length of Visible Light 15h 38m
Length of Day
14h 33m
Waxing Crescent, 19% of the Moon is Illuminated
May 14
Waxing Crescent
May 18
First Quarter
May 25
Full
May 31
Last Quarter
Jun 8
New

Hourly Weather History & Observations

Time (EDT) Temp. Windchill Dew Point Humidity Pressure Visibility Wind Dir Wind Speed Gust Speed Precip Events Conditions
12:53 AM 43.0 °F 39.5 °F 28.9 °F 58% 30.11 in 10.0 mi South 5.8 mph - N/A   Clear
1:53 AM 42.1 °F 39.2 °F 28.9 °F 60% 30.10 in 10.0 mi South 4.6 mph - N/A   Scattered Clouds
2:53 AM 41.0 °F 39.0 °F 28.9 °F 62% 30.09 in 10.0 mi SSW 3.5 mph - N/A   Clear
3:53 AM 42.1 °F 40.2 °F 30.0 °F 62% 30.07 in 10.0 mi SSW 3.5 mph - N/A   Mostly Cloudy
4:53 AM 44.1 °F - 30.0 °F 58% 30.07 in 10.0 mi Calm Calm - N/A   Overcast
5:53 AM 44.1 °F 42.5 °F 32.0 °F 63% 30.06 in 10.0 mi South 3.5 mph - N/A   Overcast
6:53 AM 45.0 °F 42.6 °F 32.0 °F 60% 30.04 in 10.0 mi South 4.6 mph - N/A   Overcast
7:53 AM 48.9 °F - 32.0 °F 52% 29.98 in 10.0 mi South 9.2 mph - N/A   Mostly Cloudy
8:53 AM 50.0 °F - 34.0 °F 54% 30.01 in 10.0 mi South 8.1 mph - N/A   Mostly Cloudy
9:53 AM 52.0 °F - 35.1 °F 53% 29.98 in 10.0 mi South 8.1 mph - N/A   Mostly Cloudy
10:53 AM 60.1 °F - 37.9 °F 44% 29.92 in 10.0 mi South 12.7 mph 20.7 mph N/A   Partly Cloudy
11:53 AM 66.0 °F - 39.0 °F 37% 29.88 in 10.0 mi South 11.5 mph 21.9 mph N/A   Overcast
12:53 PM 69.1 °F - 39.9 °F 35% 29.86 in 10.0 mi SSW 18.4 mph 25.3 mph N/A   Scattered Clouds
1:53 PM 71.1 °F - 42.1 °F 35% 29.84 in 10.0 mi SSW 17.3 mph 23.0 mph N/A   Mostly Cloudy
2:53 PM 73.9 °F - 45.0 °F 35% 29.81 in 10.0 mi SSW 11.5 mph 21.9 mph N/A   Clear
3:53 PM 75.9 °F - 46.9 °F 36% 29.79 in 10.0 mi SSW 13.8 mph - N/A   Partly Cloudy
4:53 PM 78.1 °F - 48.9 °F 36% 29.77 in 10.0 mi WSW 11.5 mph 17.3 mph N/A   Clear
5:53 PM 75.0 °F - 51.1 °F 43% 29.78 in 10.0 mi WSW 6.9 mph - N/A   Clear
6:53 PM 77.0 °F - 53.1 °F 43% 29.75 in 10.0 mi SW 4.6 mph - N/A   Clear
7:53 PM 75.0 °F - 52.0 °F 44% 29.74 in 9.0 mi Calm Calm - N/A   Clear
8:53 PM 68.0 °F - 52.0 °F 56% 29.75 in 10.0 mi ENE 4.6 mph - N/A   Clear
9:53 PM 64.9 °F - 48.9 °F 56% 29.73 in 10.0 mi East 6.9 mph - N/A   Partly Cloudy
10:53 PM 63.0 °F - 48.9 °F 60% 29.75 in 10.0 mi NE 3.5 mph - N/A   Mostly Cloudy
11:53 PM 59.0 °F - 48.9 °F 69% 29.75 in 10.0 mi NE 4.6 mph - 0.00 in   Partly Cloudy